CAPE
771 516 347 431 246 544 436 545 328 386 531 681 665 663 761 1370 814 760 922 958 980 922
693 308 756 580 499 521 807 254 191 264 454 542 619 491 696 962 773 795 888 1043 1016 1103
484 484 564 474 318 161 204 48 82 147 309 334 346 373 677 994 958 937 820 899 952 1017
847 331 474 392 202 155 120 39 54 73 98 100 195 545 756 838 635 536 1007 1059 868 888
988 470 536 445 171 79 53 15 36 60 88 70 626 472 648 427 339 558 696 814 689 704
420 508 477 475 721 23 14 24 36 53 59 201 474 588 452 291 332 483 632 650 748 743
377 351 606 199 136 32 16 16 389 67 300 271 412 395 399 95 362 531 464 494 685 677
401 371 264 126 118 37 36 307 362 255 201 260 319 209 439 518 523 151 340 557 475 318
234 216 258 168 592 419 648 515 574 324 396 499 91 10 21 166 681 410 494 247 52 40
189 195 200 192 152 190 783 951 482 193 641 401 8 0 0 81 619 772 627 472 266 71
228 300 207 519 584 520 828 736 604 410 577 402 0 0 0 40 720 823 503 449 303 194
337 360 455 469 580 790 1081 1103 836 685 576 344 0 0 0 47 561 499 537 368 335 207
273 291 295 460 693 779 850 754 921 802 625 95 24 0 4 16 547 611 435 564 187 55
342 335 655 490 569 628 494 493 900 738 593 529 224 0 4 20 555 685 503 123 161 13
CIN
-4 0 -2 -1 0 -6 -1 -10 -2 0 0 0 0 0 0 0 0 0 0 0 0 -1
0 -9 -8 -6 -2 -1 -2 -3 -1 0 0 0 -1 0 0 0 0 0 0 0 0 0
0 0 0 0 0 -5 0 0 -19 -3 -1 0 0 -1 0 0 0 0 0 0 0 0
-3 0 0 0 -3 -12 -2 0 0 0 -2 0 0 0 0 0 0 0 -1 -2 0 0
-4 0 0 0 0 -19 0 0 0 0 0 0 -2 0 0 0 -4 0 0 0 0 0
0 0 0 0 -1 0 0 0 0 0 0 -2 -2 -1 -7 -9 -2 0 0 -1 -2 -2
0 0 0 0 -1 0 0 0 0 0 -2 -2 -2 -1 -1 -31 0 -1 -1 -6 -7 -1
0 0 0 0 -2 0 0 -2 -1 -1 -1 -3 -1 -5 0 -1 0 -16 -6 -2 0 -20
0 0 0 0 -2 -3 -2 -7 -2 -1 -3 -5 -4 -48 -43 -7 0 -2 0 0 -42 -52
0 -1 -1 0 -2 0 -1 -1 0 0 -3 0 -33 0 0 -39 0 0 0 0 0 -18
-2 0 0 -1 0 0 0 -1 0 0 -7 -2 0 0 0 -28 0 0 0 0 -1 0
0 0 0 0 0 0 0 0 0 0 0 -1 0 0 0 -8 -1 -5 0 -4 -2 -1
-8 -3 0 0 0 0 0 0 -2 -1 0 -13 -26 0 -52 -12 -2 0 -2 0 -2 -3
-16 -8 0 0 0 0 0 -1 -1 0 0 0 -5 0 -23 -7 0 0 0 -1 -1 -6
Wind_Speed
25 22 22 21 13 14 10 10 10 6 8 3 5 7 8 8 7 8 7 10 12 14
16 19 21 16 8 10 8 10 7 6 5 2 7 4 5 4 5 7 10 11 11 13
20 19 17 11 7 7 9 nan nan 4 3 2 4 2 5 4 12 11 8 12 9 10
17 15 12 7 8 7 9 nan nan nan nan 5 3 2 4 8 10 11 12 7 10 13
13 8 6 9 8 nan nan nan nan nan nan nan 3 0 3 6 5 13 11 10 10 12
10 6 4 7 6 nan nan nan nan nan nan 8 4 6 1 3 7 7 10 10 7 7
8 6 6 5 7 nan nan nan 9 nan 5 4 3 2 3 nan 6 11 8 9 4 13
10 8 8 5 5 nan nan 3 8 8 3 10 7 7 7 1 5 14 13 7 10 17
10 9 9 5 3 1 3 2 4 7 8 8 nan nan nan 4 8 11 6 4 nan nan
8 9 7 6 8 4 1 1 1 2 9 12 nan nan nan nan 6 9 11 9 3 nan
13 11 8 5 4 2 4 6 8 7 7 8 nan nan nan nan 4 7 9 13 4 8
12 9 10 10 9 8 7 6 4 7 3 4 nan nan nan nan 1 6 7 7 10 5
15 13 10 11 13 14 15 11 5 6 6 nan nan nan nan nan 5 1 6 6 5 nan
12 14 10 9 9 13 18 11 7 6 7 7 8 nan nan nan 3 5 3 1 2 nan
Wind_Direction
302 317 319 318 294 308 345 350 325 344 293 309 3 22 35 57 68 90 124 139 161 172
312 304 293 308 330 317 358 310 357 323 316 21 42 56 72 95 124 140 130 137 157 158
307 318 317 329 352 334 303 nan nan 345 332 149 92 24 329 52 25 59 125 132 158 156
313 324 329 339 353 334 343 nan nan nan nan 124 125 122 35 24 39 54 91 177 140 163
314 327 339 6 345 nan nan nan nan nan nan nan 248 219 34 11 26 22 77 109 144 174
322 351 11 20 345 nan nan nan nan nan nan 219 212 256 221 228 342 69 73 92 127 158
334 336 351 346 0 nan nan nan 153 nan 215 212 199 149 270 nan 32 100 109 103 166 173
321 338 334 331 357 nan nan 126 178 197 231 185 167 177 180 265 44 52 104 125 177 181
332 336 324 308 306 108 81 72 173 184 213 151 nan nan nan 149 48 56 116 138 nan nan
347 348 347 343 342 333 265 153 98 159 211 207 nan nan nan nan 44 43 53 79 77 nan
9 359 9 13 27 326 256 236 190 169 224 188 nan nan nan nan 40 41 37 53 117 143
12 6 5 29 36 13 5 25 105 136 183 172 nan nan nan nan 4 60 71 82 106 119
28 20 29 40 52 55 52 47 96 130 137 nan nan nan nan nan 168 17 96 86 116 nan
32 31 18 41 50 60 63 62 106 136 139 160 182 nan nan nan 177 142 95 223 206 nan